Time,TemperatureF,DewpointF,PressureIn,WindDirection,WindDirectionDegrees,WindSpeedMPH,WindSpeedGustMPH,Humidity,HourlyPrecipIn,Conditions,Clouds,dailyrainin,SoftwareType,DateUTC
2013-01-03 00:02:00,23.0,17.0,30.16,SW,231,0.0,5.0,79,0.00,,,0.00,,2013-01-03 06:02:00,
2013-01-03 00:12:00,23.0,17.0,30.16,SW,231,0.0,5.0,79,0.00,,,0.00,,2013-01-03 06:12:00,
2013-01-03 00:22:00,23.0,17.0,30.15,SE,144,1.0,7.0,78,0.00,,,0.00,,2013-01-03 06:22:00,
2013-01-03 00:32:00,23.0,17.0,30.15,South,171,1.0,6.0,78,0.00,,,0.00,,2013-01-03 06:32:00,
2013-01-03 00:42:00,23.0,17.0,30.15,South,171,1.0,6.0,78,0.00,,,0.00,,2013-01-03 06:42:00,
2013-01-03 00:52:00,23.0,17.0,30.15,SSW,208,0.0,5.0,79,0.00,,,0.00,,2013-01-03 06:52:00,
2013-01-03 01:02:00,23.0,17.0,30.15,WSW,238,0.0,5.0,79,0.00,,,0.00,,2013-01-03 07:02:00,
2013-01-03 01:12:00,23.0,17.0,30.15,WSW,238,0.0,5.0,79,0.00,,,0.00,,2013-01-03 07:12:00,
2013-01-03 01:22:00,23.0,18.0,30.15,South,185,0.0,5.0,80,0.00,,,0.00,,2013-01-03 07:22:00,
2013-01-03 01:33:00,23.0,18.0,30.15,South,182,0.0,3.0,80,0.00,,,0.00,,2013-01-03 07:33:00,
2013-01-03 01:42:00,23.0,18.0,30.15,South,182,0.0,3.0,80,0.00,,,0.00,,2013-01-03 07:42:00,
2013-01-03 01:52:00,23.0,18.0,30.15,SE,134,0.0,4.0,81,0.00,,,0.00,,2013-01-03 07:52:00,
2013-01-03 02:02:00,23.0,18.0,30.15,SSE,160,0.0,4.0,81,0.00,,,0.00,,2013-01-03 08:02:00,
2013-01-03 02:12:00,23.0,18.0,30.15,SSE,160,0.0,4.0,81,0.00,,,0.00,,2013-01-03 08:12:00,
2013-01-03 02:22:00,23.0,18.0,30.16,SE,136,0.0,4.0,81,0.00,,,0.00,,2013-01-03 08:22:00,
2013-01-03 02:32:00,23.0,18.0,30.16,South,176,0.0,1.0,82,0.00,,,0.00,,2013-01-03 08:32:00,
2013-01-03 02:42:00,23.0,18.0,30.16,South,176,0.0,1.0,82,0.00,,,0.00,,2013-01-03 08:42:00,
2013-01-03 02:52:00,24.0,20.0,30.16,SSE,165,0.0,2.0,83,0.00,,,0.00,,2013-01-03 08:52:00,
2013-01-03 03:02:00,24.0,19.0,30.16,SSE,153,0.0,2.0,82,0.00,,,0.00,,2013-01-03 09:02:00,
2013-01-03 03:12:00,24.0,19.0,30.16,SSE,153,0.0,2.0,82,0.00,,,0.00,,2013-01-03 09:12:00,
2013-01-03 03:22:00,25.0,20.0,30.16,WSW,250,0.0,3.0,82,0.00,,,0.00,,2013-01-03 09:22:00,
2013-01-03 03:33:00,26.0,21.0,30.16,West,281,0.0,3.0,80,0.00,,,0.00,,2013-01-03 09:33:00,
2013-01-03 03:43:00,26.0,21.0,30.16,West,281,0.0,3.0,80,0.00,,,0.00,,2013-01-03 09:43:00,
2013-01-03 03:52:00,26.0,21.0,30.16,SE,135,0.0,3.0,81,0.00,,,0.00,,2013-01-03 09:52:00,
2013-01-03 04:02:00,26.0,21.0,30.16,SSW,209,1.0,5.0,81,0.00,,,0.00,,2013-01-03 10:02:00,
2013-01-03 04:12:00,26.0,21.0,30.16,SSW,209,1.0,5.0,81,0.00,,,0.00,,2013-01-03 10:12:00,
2013-01-03 04:22:00,26.0,21.0,30.16,SSW,202,0.0,3.0,82,0.00,,,0.00,,2013-01-03 10:22:00,
2013-01-03 04:33:00,26.0,21.0,30.16,South,186,0.0,3.0,82,0.00,,,0.00,,2013-01-03 10:33:00,
2013-01-03 04:42:00,26.0,21.0,30.16,South,186,0.0,3.0,82,0.00,,,0.00,,2013-01-03 10:42:00,
2013-01-03 04:52:00,26.0,22.0,30.16,SSE,157,0.0,4.0,83,0.00,,,0.00,,2013-01-03 10:52:00,
2013-01-03 05:02:00,26.0,22.0,30.16,SSW,201,0.0,3.0,84,0.00,,,0.00,,2013-01-03 11:02:00,
2013-01-03 05:12:00,26.0,22.0,30.16,SSW,201,0.0,3.0,84,0.00,,,0.00,,2013-01-03 11:12:00,
2013-01-03 05:22:00,26.0,22.0,30.17,WSW,252,0.0,4.0,84,0.00,,,0.00,,2013-01-03 11:22:00,
2013-01-03 05:33:00,27.0,23.0,30.17,West,259,0.0,5.0,84,0.00,,,0.00,,2013-01-03 11:33:00,
2013-01-03 05:43:00,27.0,23.0,30.17,West,259,0.0,5.0,84,0.00,,,0.00,,2013-01-03 11:43:00,
2013-01-03 05:53:00,27.0,23.0,30.17,NW,307,1.0,5.0,84,0.00,,,0.00,,2013-01-03 11:53:00,
2013-01-03 06:03:00,27.0,23.0,30.17,West,265,1.0,5.0,84,0.00,,,0.00,,2013-01-03 12:03:00,
2013-01-03 06:12:00,27.0,23.0,30.17,West,265,1.0,5.0,84,0.00,,,0.00,,2013-01-03 12:12:00,
2013-01-03 06:22:00,27.0,23.0,30.17,WSW,238,1.0,6.0,84,0.00,,,0.00,,2013-01-03 12:22:00,
2013-01-03 06:32:00,27.0,23.0,30.18,WNW,283,1.0,7.0,85,0.00,,,0.00,,2013-01-03 12:32:00,
2013-01-03 06:42:00,27.0,23.0,30.18,WNW,283,1.0,7.0,85,0.00,,,0.00,,2013-01-03 12:42:00,
2013-01-03 06:52:00,27.0,23.0,30.18,South,186,0.0,5.0,86,0.00,,,0.00,,2013-01-03 12:52:00,
2013-01-03 07:02:00,27.0,23.0,30.19,West,264,1.0,4.0,86,0.00,,,0.00,,2013-01-03 13:02:00,
2013-01-03 07:13:00,27.0,23.0,30.19,West,264,1.0,4.0,86,0.00,,,0.00,,2013-01-03 13:13:00,
2013-01-03 07:22:00,27.0,24.0,30.18,WNW,302,0.0,5.0,87,0.00,,,0.00,,2013-01-03 13:22:00,
2013-01-03 07:33:00,28.0,25.0,30.19,WSW,252,1.0,4.0,87,0.00,,,0.00,,2013-01-03 13:33:00,
2013-01-03 07:42:00,28.0,25.0,30.19,WSW,252,1.0,4.0,87,0.00,,,0.00,,2013-01-03 13:42:00,
2013-01-03 07:52:00,28.0,25.0,30.18,WNW,296,1.0,5.0,88,0.00,,,0.00,,2013-01-03 13:52:00,
2013-01-03 08:03:00,28.0,25.0,30.18,NNW,340,1.0,4.0,88,0.00,,,0.00,,2013-01-03 14:03:00,
2013-01-03 08:12:00,28.0,25.0,30.18,NNW,340,1.0,4.0,88,0.00,,,0.00,,2013-01-03 14:12:00,
2013-01-03 08:22:00,28.0,25.0,30.19,East,88,0.0,4.0,88,0.00,,,0.00,,2013-01-03 14:22:00,
2013-01-03 08:33:00,28.0,25.0,30.19,East,88,0.0,4.0,88,0.00,,,0.00,,2013-01-03 14:33:00,
2013-01-03 08:42:00,28.0,25.0,30.19,East,88,0.0,4.0,88,0.00,,,0.00,,2013-01-03 14:42:00,
2013-01-03 08:53:00,28.0,25.0,30.19,East,88,0.0,4.0,88,0.00,,,0.00,,2013-01-03 14:53:00,
2013-01-03 09:23:00,30.0,26.0,30.22,NE,51,1.0,7.0,86,0.00,,,0.00,,2013-01-03 15:23:00,
2013-01-03 09:34:00,30.0,26.0,30.22,West,263,2.0,7.0,86,0.00,,,0.00,,2013-01-03 15:34:00,
2013-01-03 09:43:00,30.0,26.0,30.22,West,263,2.0,7.0,86,0.00,,,0.00,,2013-01-03 15:43:00,
2013-01-03 09:53:00,30.0,26.0,30.22,South,182,3.0,7.0,84,0.00,,,0.00,,2013-01-03 15:53:00,
2013-01-03 10:03:00,31.0,26.0,30.23,NW,321,2.0,9.0,82,0.00,,,0.00,,2013-01-03 16:03:00,
2013-01-03 10:12:00,31.0,26.0,30.23,NW,321,2.0,9.0,82,0.00,,,0.00,,2013-01-03 16:12:00,
2013-01-03 10:22:00,31.0,26.0,30.23,NW,306,2.0,10.0,80,0.00,,,0.00,,2013-01-03 16:22:00,
2013-01-03 10:33:00,31.0,24.0,30.24,NW,321,3.0,9.0,76,0.00,,,0.00,,2013-01-03 16:33:00,
2013-01-03 10:43:00,31.0,24.0,30.24,NW,321,3.0,9.0,76,0.00,,,0.00,,2013-01-03 16:43:00,
2013-01-03 10:52:00,31.0,24.0,30.24,NW,321,3.0,9.0,76,0.00,,,0.00,,2013-01-03 16:52:00,
2013-01-03 11:03:00,31.0,23.0,30.24,NNE,21,2.0,11.0,73,0.00,,,0.00,,2013-01-03 17:03:00,
2013-01-03 11:12:00,31.0,23.0,30.24,NNE,21,2.0,11.0,73,0.00,,,0.00,,2013-01-03 17:12:00,
2013-01-03 11:23:00,31.0,23.0,30.24,WNW,282,3.0,10.0,71,0.00,,,0.00,,2013-01-03 17:23:00,
2013-01-03 11:33:00,31.0,23.0,30.24,NW,307,4.0,14.0,71,0.00,,,0.00,,2013-01-03 17:33:00,
2013-01-03 11:43:00,31.0,23.0,30.24,NW,307,4.0,14.0,71,0.00,,,0.00,,2013-01-03 17:43:00,
2013-01-03 11:52:00,31.0,23.0,30.24,WNW,303,4.0,13.0,71,0.00,,,0.00,,2013-01-03 17:52:00,
2013-01-03 12:03:00,31.0,23.0,30.23,North,355,2.0,11.0,72,0.00,,,0.00,,2013-01-03 18:03:00,
2013-01-03 12:13:00,31.0,23.0,30.23,North,355,2.0,11.0,72,0.00,,,0.00,,2013-01-03 18:13:00,
2013-01-03 12:22:00,31.0,22.0,30.23,NW,309,5.0,14.0,70,0.00,,,0.00,,2013-01-03 18:22:00,
2013-01-03 12:33:00,31.0,23.0,30.22,WNW,300,4.0,12.0,71,0.00,,,0.00,,2013-01-03 18:33:00,
2013-01-03 12:42:00,31.0,23.0,30.22,WNW,300,4.0,12.0,71,0.00,,,0.00,,2013-01-03 18:42:00,
2013-01-03 12:53:00,31.0,22.0,30.22,WNW,292,4.0,14.0,69,0.00,,,0.00,,2013-01-03 18:53:00,
2013-01-03 13:03:00,31.0,22.0,30.22,WNW,292,1.0,14.0,70,0.00,,,0.00,,2013-01-03 19:03:00,
2013-01-03 13:12:00,31.0,22.0,30.22,WNW,292,1.0,14.0,70,0.00,,,0.00,,2013-01-03 19:12:00,
2013-01-03 13:55:00,31.0,22.0,30.22,West,269,3.0,12.0,68,0.00,,,0.00,,2013-01-03 19:55:00,
2013-01-03 14:03:00,32.0,20.0,30.22,West,268,3.0,14.0,61,0.00,,,0.00,,2013-01-03 20:03:00,
2013-01-03 14:12:00,32.0,20.0,30.22,West,268,3.0,14.0,61,0.00,,,0.00,,2013-01-03 20:12:00,
2013-01-03 14:22:00,32.0,19.0,30.22,WSW,242,4.0,12.0,59,0.00,,,0.00,,2013-01-03 20:22:00,
2013-01-03 14:33:00,32.0,19.0,30.23,North,355,3.0,10.0,59,0.00,,,0.00,,2013-01-03 20:33:00,
2013-01-03 14:42:00,32.0,19.0,30.23,North,355,3.0,10.0,59,0.00,,,0.00,,2013-01-03 20:42:00,
2013-01-03 14:53:00,32.0,19.0,30.23,North,355,3.0,10.0,59,0.00,,,0.00,,2013-01-03 20:53:00,
2013-01-03 15:02:00,31.0,18.0,30.24,WSW,240,2.0,14.0,59,0.00,,,0.00,,2013-01-03 21:02:00,
2013-01-03 15:12:00,31.0,18.0,30.24,WSW,240,2.0,14.0,59,0.00,,,0.00,,2013-01-03 21:12:00,
2013-01-03 15:22:00,31.0,18.0,30.25,NNW,341,4.0,13.0,59,0.00,,,0.00,,2013-01-03 21:22:00,
2013-01-03 15:36:00,30.0,18.0,30.26,NNE,14,4.0,12.0,60,0.00,,,0.00,,2013-01-03 21:36:00,
2013-01-03 15:48:00,30.0,18.0,30.26,NNE,14,4.0,12.0,60,0.00,,,0.00,,2013-01-03 21:48:00,
2013-01-03 16:03:00,29.0,18.0,30.27,NW,311,1.0,11.0,63,0.00,,,0.00,,2013-01-03 22:03:00,
2013-01-03 16:12:00,29.0,18.0,30.27,NW,311,1.0,11.0,63,0.00,,,0.00,,2013-01-03 22:12:00,
2013-01-03 16:22:00,29.0,18.0,30.27,NW,306,3.0,10.0,64,0.00,,,0.00,,2013-01-03 22:22:00,
2013-01-03 16:33:00,28.0,18.0,30.28,NNW,342,2.0,5.0,66,0.00,,,0.00,,2013-01-03 22:33:00,
2013-01-03 16:42:00,28.0,18.0,30.28,NNW,342,2.0,5.0,66,0.00,,,0.00,,2013-01-03 22:42:00,
2013-01-03 16:52:00,28.0,18.0,30.28,NNW,342,2.0,5.0,66,0.00,,,0.00,,2013-01-03 22:52:00,
2013-01-03 17:02:00,27.0,18.0,30.29,WNW,293,2.0,6.0,69,0.00,,,0.00,,2013-01-03 23:02:00,
2013-01-03 17:12:00,27.0,18.0,30.29,WNW,293,2.0,6.0,69,0.00,,,0.00,,2013-01-03 23:12:00,
2013-01-03 17:22:00,27.0,19.0,30.29,NW,321,3.0,8.0,70,0.00,,,0.00,,2013-01-03 23:22:00,
2013-01-03 17:33:00,27.0,19.0,30.29,NW,309,2.0,9.0,70,0.00,,,0.00,,2013-01-03 23:33:00,
2013-01-03 17:43:00,27.0,19.0,30.29,NW,309,2.0,9.0,70,0.00,,,0.00,,2013-01-03 23:43:00,
2013-01-03 17:52:00,26.0,18.0,30.30,West,271,3.0,10.0,70,0.00,,,0.00,,2013-01-03 23:52:00,
2013-01-03 18:03:00,26.0,18.0,30.30,NW,323,3.0,8.0,72,0.00,,,0.00,,2013-01-04 00:03:00,
2013-01-03 18:12:00,26.0,18.0,30.30,NW,323,3.0,8.0,72,0.00,,,0.00,,2013-01-04 00:12:00,
2013-01-03 18:22:00,26.0,19.0,30.31,West,273,3.0,9.0,73,0.00,,,0.00,,2013-01-04 00:22:00,
2013-01-03 18:32:00,26.0,19.0,30.31,West,273,3.0,9.0,73,0.00,,,0.00,,2013-01-04 00:32:00,
2013-01-03 18:42:00,26.0,19.0,30.31,West,273,3.0,9.0,73,0.00,,,0.00,,2013-01-04 00:42:00,
2013-01-03 18:52:00,25.0,18.0,30.32,NNW,329,2.0,9.0,74,0.00,,,0.00,,2013-01-04 00:52:00,
2013-01-03 19:02:00,25.0,18.0,30.32,NW,311,2.0,8.0,74,0.00,,,0.00,,2013-01-04 01:02:00,
2013-01-03 19:12:00,25.0,18.0,30.32,NW,311,2.0,8.0,74,0.00,,,0.00,,2013-01-04 01:12:00,
2013-01-03 19:22:00,25.0,18.0,30.32,West,267,2.0,5.0,75,0.00,,,0.00,,2013-01-04 01:22:00,
2013-01-03 19:32:00,24.0,18.0,30.32,NW,321,1.0,5.0,76,0.00,,,0.00,,2013-01-04 01:32:00,
2013-01-03 19:42:00,24.0,18.0,30.32,NW,321,1.0,5.0,76,0.00,,,0.00,,2013-01-04 01:42:00,
2013-01-03 19:52:00,24.0,18.0,30.32,NW,321,1.0,6.0,76,0.00,,,0.00,,2013-01-04 01:52:00,
2013-01-03 20:02:00,24.0,18.0,30.32,North,350,0.0,6.0,77,0.00,,,0.00,,2013-01-04 02:02:00,
2013-01-03 20:12:00,24.0,18.0,30.32,North,350,0.0,6.0,77,0.00,,,0.00,,2013-01-04 02:12:00,
2013-01-03 20:22:00,23.0,17.0,30.33,SSW,211,0.0,8.0,77,0.00,,,0.00,,2013-01-04 02:22:00,
2013-01-03 20:32:00,23.0,17.0,30.33,WSW,244,1.0,7.0,78,0.00,,,0.00,,2013-01-04 02:32:00,
2013-01-03 20:42:00,23.0,17.0,30.33,WSW,244,1.0,7.0,78,0.00,,,0.00,,2013-01-04 02:42:00,
2013-01-03 20:52:00,22.0,16.0,30.33,West,262,2.0,7.0,78,0.00,,,0.00,,2013-01-04 02:52:00,
2013-01-03 21:02:00,21.0,16.0,30.32,SW,221,2.0,6.0,79,0.00,,,0.00,,2013-01-04 03:02:00,
2013-01-03 21:12:00,21.0,16.0,30.32,SW,221,2.0,6.0,79,0.00,,,0.00,,2013-01-04 03:12:00,
2013-01-03 21:22:00,21.0,16.0,30.32,SW,221,2.0,6.0,79,0.00,,,0.00,,2013-01-04 03:22:00,
2013-01-03 21:32:00,20.0,15.0,30.33,West,272,1.0,4.0,81,0.00,,,0.00,,2013-01-04 03:32:00,
2013-01-03 21:42:00,20.0,15.0,30.33,West,272,1.0,4.0,81,0.00,,,0.00,,2013-01-04 03:42:00,
2013-01-03 21:53:00,20.0,15.0,30.33,ENE,57,1.0,7.0,81,0.00,,,0.00,,2013-01-04 03:53:00,
2013-01-03 22:02:00,19.0,14.0,30.33,NW,309,2.0,6.0,81,0.00,,,0.00,,2013-01-04 04:02:00,
2013-01-03 22:12:00,19.0,14.0,30.33,NW,309,2.0,6.0,81,0.00,,,0.00,,2013-01-04 04:12:00,
2013-01-03 22:22:00,19.0,14.0,30.33,SSW,205,1.0,5.0,82,0.00,,,0.00,,2013-01-04 04:22:00,
2013-01-03 22:32:00,19.0,15.0,30.32,SW,225,0.0,5.0,83,0.00,,,0.00,,2013-01-04 04:32:00,
2013-01-03 22:42:00,19.0,15.0,30.32,SW,225,0.0,5.0,83,0.00,,,0.00,,2013-01-04 04:42:00,
2013-01-03 22:52:00,18.0,14.0,30.32,SW,226,0.0,5.0,83,0.00,,,0.00,,2013-01-04 04:52:00,
2013-01-03 23:03:00,17.0,13.0,30.32,SSW,209,0.0,3.0,84,0.00,,,0.00,,2013-01-04 05:03:00,
2013-01-03 23:12:00,17.0,13.0,30.32,SSW,209,0.0,3.0,84,0.00,,,0.00,,2013-01-04 05:12:00,
2013-01-03 23:22:00,17.0,14.0,30.32,WNW,296,2.0,6.0,86,0.00,,,0.00,,2013-01-04 05:22:00,
2013-01-03 23:33:00,17.0,14.0,30.33,South,169,0.0,5.0,86,0.00,,,0.00,,2013-01-04 05:33:00,
2013-01-03 23:42:00,17.0,14.0,30.33,South,169,0.0,5.0,86,0.00,,,0.00,,2013-01-04 05:42:00,
2013-01-03 23:52:00,16.0,13.0,30.33,NW,318,1.0,5.0,86,0.00,,,0.00,,2013-01-04 05:52:00,